Athens, GA

3:28 AM EDT on September 18, 2019 (GMT -0400)
Athens / Epps

Weather History for KAHN - August, 2019

Change the Weather History Date:

Monday, August 19, 2019

  Actual Average Record
Temperature  
Mean Temperature 82 °F 80 °F  
Max Temperature 93 °F 90 °F 105 °F (1925)
Min Temperature 70 °F 69 °F 61 °F (1976)
Cooling Degree Days 17 15  
Month to date cooling degree days 326 287  
Year to date cooling degree days 1643 1389  
Since 1 June cooling degree days 1227 1149  
Growing Degree Days 32 (Base 50)    
Moisture  
Dew Point 71 °F    
Average Humidity 81    
Maximum Humidity 93    
Minimum Humidity 46    
Precipitation  
Precipitation 0.63 in 0.11 in 1.36 in (1873)
Month to date precipitation 6.14 2.26  
Year to date precipitation 30.58 30.02  
Sea Level Pressure  
Sea Level Pressure 30.05 in    
Wind  
Wind Speed 2 mph ()    
Max Wind Speed 23 mph    
Max Gust Speed 29 mph    
Visibility 8.6 miles    
Events Rain , Thunderstorm    
T = Trace of Precipitation, MM = Missing Value Source: Averaged Metar Reports

Daily Weather History Graph

Daily Weather History Graph

Search for Another Location

Airport or City:

Astronomy

Aug. 19, 2019 Rise Set
Actual Time 6:57 AM EDT 8:15 PM EDT
Civil Twilight 6:31 AM EDT 8:41 PM EDT
Nautical Twilight 6:00 AM EDT 9:13 PM EDT
Astronomical Twilight 5:27 AM EDT 9:45 PM EDT
Moon 10:46 PM EDT (8/19) 10:29 AM EDT (8/19)
Length of Visible Light 14h 10m
Length of Day
13h 18m
Waning Gibbous, 85% of the Moon is Illuminated
Aug 19
Waning Gibbous
Aug 23
Last Quarter
Aug 30
New
Sep 5
First Quarter
Sep 14
Full

Hourly Weather History & Observations

Time (EDT) Temp. Heat Index Dew Point Humidity Pressure Visibility Wind Dir Wind Speed Gust Speed Precip Events Conditions
12:51 AM 75.9 °F - 71.1 °F 85% 30.02 in 10.0 mi Calm Calm - N/A   Clear
1:51 AM 75.9 °F - 71.1 °F 85% 30.02 in 10.0 mi Calm Calm - N/A   Clear
2:51 AM 73.9 °F - 71.1 °F 91% 30.02 in 10.0 mi Calm Calm - N/A   Clear
3:51 AM 73.0 °F - 71.1 °F 93% 30.02 in 10.0 mi Calm Calm - N/A   Clear
4:51 AM 73.0 °F - 70.0 °F 90% 30.02 in 10.0 mi SE 3.5 mph - N/A   Clear
5:51 AM 72.0 °F - 70.0 °F 93% 30.03 in 10.0 mi Calm Calm - N/A   Clear
6:51 AM 71.1 °F - 69.1 °F 93% 30.04 in 10.0 mi Calm Calm - N/A   Clear
7:51 AM 73.9 °F - 72.0 °F 93% 30.06 in 10.0 mi Calm Calm - N/A   Clear
8:35 AM 75.0 °F - 72.0 °F 90% 30.09 in 10.0 mi Variable 3.5 mph - N/A   Scattered Clouds
8:51 AM 75.0 °F - 72.0 °F 90% 30.07 in 10.0 mi South 3.5 mph - N/A   Mostly Cloudy
9:01 AM 75.9 °F - 73.0 °F 91% 30.10 in 10.0 mi Variable 4.6 mph - N/A   Overcast
9:37 AM 78.1 °F - 73.0 °F 84% 30.10 in 10.0 mi Variable 3.5 mph - N/A   Mostly Cloudy
9:51 AM 80.1 °F 84.2 °F 73.0 °F 79% 30.08 in 10.0 mi Calm Calm - N/A   Scattered Clouds
10:51 AM 82.9 °F 89.4 °F 73.9 °F 74% 30.08 in 10.0 mi Calm Calm - N/A   Clear
11:51 AM 84.9 °F 92.1 °F 73.9 °F 69% 30.08 in 10.0 mi East 5.8 mph - N/A   Clear
12:51 PM 87.1 °F 95.4 °F 73.9 °F 65% 30.08 in 10.0 mi Calm Calm - N/A   Clear
1:51 PM 88.0 °F 96.5 °F 73.9 °F 63% 30.06 in 10.0 mi Variable 4.6 mph - N/A   Scattered Clouds
2:51 PM 91.0 °F 99.3 °F 73.0 °F 55% 30.03 in 10.0 mi Variable 4.6 mph - N/A   Partly Cloudy
3:51 PM 91.0 °F 97.6 °F 71.1 °F 52% 30.01 in 10.0 mi Variable 4.6 mph - N/A   Scattered Clouds
4:51 PM 93.0 °F 99.0 °F 70.0 °F 47% 29.99 in 10.0 mi Variable 4.6 mph - N/A   Partly Cloudy
5:51 PM 91.0 °F 95.6 °F 69.1 °F 48% 29.99 in 10.0 mi South 4.6 mph - N/A   Mostly Cloudy
6:21 PM 80.1 °F 83.2 °F 70.0 °F 71% 30.02 in 3.0 mi WNW 12.7 mph 19.6 mph 0.03 in Rain , Thunderstorm Heavy Rain
6:22 PM 80.1 °F 83.2 °F 70.0 °F 71% 30.02 in 3.0 mi NW 15.0 mph 19.6 mph 0.04 in Rain , Thunderstorm Heavy Thunderstorms and Rain
6:51 PM 77.0 °F - 70.0 °F 79% 30.04 in 10.0 mi North - - 0.06 in Rain , Thunderstorm Light Thunderstorms and Rain
7:08 PM 72.0 °F - 68.0 °F 87% 30.10 in 1.8 mi North 11.5 mph 21.9 mph 0.12 in Rain , Thunderstorm Heavy Thunderstorms and Rain
7:28 PM 71.1 °F - 68.0 °F 90% 30.09 in 1.2 mi NNW 6.9 mph - 0.46 in Rain , Thunderstorm Heavy Thunderstorms and Rain
7:34 PM 70.0 °F - 68.0 °F 93% 30.07 in 2.0 mi SW 3.5 mph - 0.49 in Rain , Thunderstorm Thunderstorms and Rain
7:40 PM 71.1 °F - 68.0 °F 90% 30.05 in 3.0 mi SW 3.5 mph - 0.50 in Rain Light Rain
7:51 PM 72.0 °F - 69.1 °F 91% 30.01 in 10.0 mi Calm Calm - 0.50 in Rain Light Rain
8:51 PM 73.0 °F - 69.1 °F 87% 30.08 in 9.0 mi Calm Calm - 0.06 in Rain Light Rain
9:51 PM 72.0 °F - 70.0 °F 93% 30.09 in 10.0 mi Calm Calm - 0.01 in   Clear
10:51 PM 71.1 °F - 69.1 °F 93% 30.12 in 10.0 mi SE 3.5 mph - N/A   Partly Cloudy
11:51 PM 71.1 °F - 69.1 °F 93% 30.09 in 10.0 mi ENE 3.5 mph - N/A   Clear